| time (UTC) | temp C | wind direction | speed KPH | gust KPH | rain 1hr cm | rain 24hr cm | rain mn cm | humidity % | barometer mb |
| 20260507085537 | 18 | 321 | 12.9 | 25.7 | 0.00 | 0.94 | 0.00 | 71 | 1014.0 |
| 20260507085039 | 18 | 282 | 11.3 | 25.7 | 0.00 | 0.94 | 0.00 | 64 | 1014.0 |
| 20260507084550 | 18 | 278 | 6.4 | 14.5 | 0.00 | 0.94 | 0.00 | 66 | 1014.0 |
| 20260507084037 | 18 | 232 | 3.2 | 14.5 | 0.00 | 0.94 | 0.00 | 67 | 1013.8 |
| 20260507083537 | 18 | 304 | 6.4 | 14.5 | 0.00 | 0.94 | 0.00 | 66 | 1013.8 |
| 20260507083049 | 18 | 0 | 3.2 | 14.5 | 0.00 | 0.94 | 0.00 | 67 | 1013.8 |
| 20260507082537 | 18 | 221 | 6.4 | 14.5 | 0.00 | 0.94 | 0.00 | 67 | 1013.8 |
| 20260507082039 | 18 | 315 | 4.8 | 12.9 | 0.00 | 0.94 | 0.00 | 67 | 1013.8 |
| 20260507081546 | 17 | 331 | 6.4 | 9.7 | 0.00 | 0.94 | 0.00 | 67 | 1014.0 |
| 20260507081038 | 17 | 291 | 4.8 | 8.0 | 0.00 | 0.94 | 0.00 | 68 | 1013.8 |
| 20260507080537 | 17 | 311 | 0.0 | 3.2 | 0.00 | 0.94 | 0.00 | 69 | 1013.9 |
| 20260507080100 | 17 | 218 | 0.0 | 6.4 | 0.00 | 0.94 | 0.00 | 72 | 1013.8 |
| 20260507075538 | 16 | 0 | 0.0 | 6.4 | 0.00 | 0.94 | 0.00 | 75 | 1013.7 |
| 20260507075037 | 16 | 163 | 0.0 | 4.8 | 0.00 | 0.94 | 0.00 | 77 | 1013.8 |
| 20260507074551 | 16 | 0 | 1.6 | 4.8 | 0.00 | 0.94 | 0.00 | 77 | 1013.7 |
| 20260507074037 | 15 | 178 | 0.0 | 3.2 | 0.00 | 0.94 | 0.00 | 77 | 1013.7 |
| 20260507073537 | 15 | 155 | 0.0 | 3.2 | 0.00 | 0.94 | 0.00 | 79 | 1013.7 |
| 20260507073048 | 15 | 0 | 0.0 | 3.2 | 0.00 | 0.94 | 0.00 | 78 | 1013.6 |
| 20260507072538 | 15 | 0 | 0.0 | 4.8 | 0.00 | 0.94 | 0.00 | 78 | 1013.6 |
| 20260507072113 | 15 | 301 | 1.6 | 4.8 | 0.00 | 0.94 | 0.00 | 79 | 1013.7 |
| 20260507071606 | 15 | 295 | 1.6 | 6.4 | 0.00 | 0.94 | 0.00 | 80 | 1013.6 |
| 20260507071038 | 15 | 302 | 3.2 | 6.4 | 0.00 | 0.94 | 0.00 | 80 | 1013.5 |
| 20260507070537 | 15 | 327 | 0.0 | 6.4 | 0.00 | 0.94 | 0.00 | 80 | 1013.4 |
| 20260507070048 | 15 | 292 | 1.6 | 6.4 | 0.00 | 0.94 | 0.00 | 81 | 1013.4 |
| 20260507065537 | 14 | 0 | 0.0 | 1.6 | 0.00 | 0.97 | 0.00 | 81 | 1013.3 |
| 20260507065037 | 14 | 0 | 0.0 | 1.6 | 0.00 | 0.97 | 0.00 | 81 | 1013.2 |
| 20260507064546 | 14 | 0 | 0.0 | 3.2 | 0.00 | 0.97 | 0.00 | 82 | 1013.2 |
| 20260507064037 | 14 | 0 | 0.0 | 3.2 | 0.00 | 0.97 | 0.00 | 82 | 1013.1 |
| 20260507063538 | 13 | 0 | 0.0 | 3.2 | 0.00 | 0.97 | 0.00 | 83 | 1013.1 |
| 20260507063047 | 13 | 258 | 0.0 | 3.2 | 0.00 | 0.97 | 0.00 | 84 | 1013.2 |
| 20260507062538 | 13 | 0 | 0.0 | 3.2 | 0.00 | 0.97 | 0.00 | 85 | 1013.1 |
| 20260507062038 | 13 | 305 | 0.0 | 4.8 | 0.00 | 0.97 | 0.00 | 85 | 1013.1 |
| 20260507061545 | 13 | 305 | 1.6 | 6.4 | 0.00 | 0.97 | 0.00 | 86 | 1013.0 |
| 20260507061038 | 12 | 300 | 1.6 | 6.4 | 0.00 | 0.97 | 0.00 | 86 | 1012.9 |
| 20260507060538 | 12 | 331 | 3.2 | 4.8 | 0.00 | 0.97 | 0.00 | 86 | 1012.9 |
| 20260507060045 | 12 | 287 | 1.6 | 4.8 | 0.00 | 0.97 | 0.00 | 87 | 1012.8 |
| 20260507055538 | 12 | 307 | 3.2 | 4.8 | 0.00 | 0.97 | 0.00 | 87 | 1012.9 |
| 20260507055037 | 12 | 5 | 1.6 | 4.8 | 0.00 | 0.97 | 0.00 | 88 | 1012.8 |
| 20260507054545 | 12 | 0 | 0.0 | 4.8 | 0.00 | 0.97 | 0.00 | 88 | 1012.8 |
| 20260507054037 | 12 | 284 | 1.6 | 4.8 | 0.00 | 0.97 | 0.00 | 88 | 1012.8 |
| 20260507053538 | 12 | 254 | 1.6 | 6.4 | 0.00 | 0.97 | 0.00 | 88 | 1012.8 |
| 20260507053111 | 12 | 254 | 3.2 | 6.4 | 0.00 | 0.97 | 0.00 | 89 | 1012.7 |
| 20260507052538 | 12 | 229 | 3.2 | 6.4 | 0.00 | 0.97 | 0.00 | 89 | 1012.6 |
| 20260507052037 | 12 | 0 | 0.0 | 4.8 | 0.00 | 0.97 | 0.00 | 88 | 1012.5 |
| 20260507051552 | 12 | 246 | 1.6 | 4.8 | 0.00 | 0.97 | 0.00 | 88 | 1012.5 |
| 20260507051037 | 12 | 0 | 1.6 | 3.2 | 0.00 | 0.97 | 0.00 | 88 | 1012.4 |
| 20260507050538 | 12 | 0 | 0.0 | 3.2 | 0.00 | 0.97 | 0.00 | 88 | 1012.3 |
| 20260507050046 | 12 | 0 | 0.0 | 1.6 | 0.00 | 0.97 | 0.00 | 88 | 1012.2 |
| 20260507045539 | 12 | 11 | 0.0 | 1.6 | 0.00 | 1.32 | 0.00 | 88 | 1012.1 |
| 20260507045039 | 12 | 0 | 0.0 | 1.6 | 0.00 | 1.32 | 0.00 | 87 | 1012.2 |
| 20260507044547 | 12 | 0 | 0.0 | 0.0 | 0.00 | 1.32 | 0.00 | 87 | 1012.1 |
| 20260507044037 | 12 | 0 | 0.0 | 0.0 | 0.00 | 1.32 | 0.00 | 87 | 1012.0 |
| 20260507043537 | 12 | 0 | 0.0 | 0.0 | 0.00 | 1.32 | 0.00 | 87 | 1011.9 |
| 20260507043047 | 12 | 0 | 0.0 | 1.6 | 0.00 | 1.32 | 0.00 | 87 | 1012.0 |
| 20260507042538 | 12 | 0 | 0.0 | 3.2 | 0.00 | 1.32 | 0.00 | 87 | 1011.9 |
| 20260507042037 | 12 | 0 | 0.0 | 3.2 | 0.00 | 1.32 | 0.00 | 87 | 1011.8 |
| 20260507041547 | 12 | 5 | 0.0 | 3.2 | 0.00 | 1.32 | 0.00 | 87 | 1011.8 |
| 20260507041037 | 12 | 5 | 0.0 | 3.2 | 0.00 | 1.32 | 0.00 | 87 | 1011.9 |
| 20260507040538 | 12 | 0 | 0.0 | 3.2 | 0.00 | 1.32 | 0.00 | 87 | 1011.8 |
| 20260507040134 | 12 | 0 | 0.0 | 3.2 | 0.00 | 1.32 | 0.00 | 87 | 1011.8 |
| 20260507035538 | 12 | 0 | 0.0 | 3.2 | 0.00 | 1.55 | 0.00 | 86 | 1011.8 |
| 20260507035037 | 12 | 352 | 0.0 | 4.8 | 0.00 | 1.55 | 0.00 | 86 | 1011.9 |
| 20260507034546 | 12 | 0 | 0.0 | 8.0 | 0.00 | 1.55 | 0.00 | 86 | 1012.0 |
| 20260507034037 | 12 | 10 | 3.2 | 8.0 | 0.00 | 1.55 | 0.00 | 87 | 1011.9 |
| 20260507033538 | 12 | 332 | 3.2 | 6.4 | 0.00 | 1.55 | 0.00 | 86 | 1011.8 |
| 20260507033052 | 12 | 334 | 3.2 | 8.0 | 0.00 | 1.55 | 0.00 | 86 | 1011.8 |
| 20260507032539 | 12 | 352 | 3.2 | 11.3 | 0.00 | 1.55 | 0.00 | 86 | 1011.8 |
| 20260507032037 | 12 | 329 | 4.8 | 11.3 | 0.00 | 1.55 | 0.00 | 86 | 1011.7 |
| 20260507031553 | 12 | 316 | 3.2 | 6.4 | 0.00 | 1.55 | 0.00 | 86 | 1011.8 |
| 20260507031040 | 12 | 321 | 3.2 | 8.0 | 0.00 | 1.55 | 0.00 | 86 | 1011.7 |
| 20260507030537 | 12 | 344 | 3.2 | 8.0 | 0.00 | 1.55 | 0.00 | 85 | 1011.7 |
| 20260507030050 | 12 | 346 | 3.2 | 8.0 | 0.00 | 1.55 | 0.00 | 85 | 1011.7 |
| 20260507025537 | 12 | 340 | 3.2 | 8.0 | 0.00 | 1.55 | 0.00 | 85 | 1011.7 |
| 20260507025037 | 12 | 338 | 4.8 | 6.4 | 0.00 | 1.55 | 0.00 | 85 | 1011.7 |
| 20260507024550 | 12 | 352 | 3.2 | 8.0 | 0.00 | 1.55 | 0.00 | 85 | 1011.7 |
| 20260507024039 | 12 | 17 | 3.2 | 9.7 | 0.00 | 1.55 | 0.00 | 85 | 1011.6 |
| 20260507023537 | 12 | 360 | 3.2 | 9.7 | 0.00 | 1.55 | 0.00 | 84 | 1011.6 |
| 20260507023047 | 12 | 9 | 3.2 | 9.7 | 0.00 | 1.55 | 0.00 | 84 | 1011.5 |
| 20260507022537 | 12 | 342 | 4.8 | 12.9 | 0.00 | 1.55 | 0.00 | 84 | 1011.6 |
| 20260507022039 | 12 | 327 | 4.8 | 12.9 | 0.00 | 1.55 | 0.00 | 84 | 1011.5 |
| 20260507021545 | 12 | 338 | 6.4 | 9.7 | 0.00 | 1.55 | 0.00 | 83 | 1011.6 |
| 20260507021038 | 12 | 347 | 4.8 | 9.7 | 0.00 | 1.55 | 0.00 | 83 | 1011.6 |
| 20260507020538 | 12 | 5 | 4.8 | 8.0 | 0.00 | 1.55 | 0.00 | 83 | 1011.6 |
| 20260507020047 | 12 | 360 | 4.8 | 8.0 | 0.00 | 1.55 | 0.00 | 83 | 1011.6 |
| 20260507015537 | 12 | 340 | 3.2 | 12.9 | 0.00 | 1.55 | 0.00 | 83 | 1011.5 |
| 20260507015038 | 13 | 319 | 3.2 | 12.9 | 0.00 | 1.55 | 0.00 | 83 | 1011.5 |
| 20260507014601 | 13 | 304 | 6.4 | 12.9 | 0.00 | 1.55 | 0.00 | 82 | 1011.6 |
| 20260507014038 | 13 | 332 | 3.2 | 12.9 | 0.00 | 1.55 | 0.00 | 82 | 1011.4 |
| 20260507013537 | 13 | 325 | 6.4 | 12.9 | 0.00 | 1.55 | 0.00 | 82 | 1011.4 |
| 20260507013050 | 13 | 318 | 4.8 | 11.3 | 0.00 | 1.55 | 0.00 | 82 | 1011.4 |
| 20260507012537 | 13 | 286 | 4.8 | 12.9 | 0.00 | 1.55 | 0.00 | 82 | 1011.4 |
| 20260507012037 | 13 | 307 | 6.4 | 12.9 | 0.00 | 1.55 | 0.00 | 82 | 1011.4 |
| 20260507011552 | 13 | 309 | 4.8 | 11.3 | 0.00 | 1.55 | 0.00 | 82 | 1011.4 |
| 20260507011038 | 13 | 325 | 3.2 | 11.3 | 0.00 | 1.55 | 0.00 | 82 | 1011.4 |
| 20260507010537 | 13 | 344 | 4.8 | 11.3 | 0.00 | 1.55 | 0.00 | 82 | 1011.2 |
| 20260507010054 | 13 | 9 | 4.8 | 12.9 | 0.00 | 1.55 | 0.00 | 82 | 1011.3 |
| 20260507005539 | 13 | 336 | 4.8 | 12.9 | 0.00 | 1.55 | 0.00 | 82 | 1011.3 |
| 20260507005038 | 13 | 321 | 6.4 | 12.9 | 0.00 | 1.55 | 0.00 | 82 | 1011.3 |
| 20260507004559 | 13 | 5 | 6.4 | 9.7 | 0.00 | 1.55 | 0.00 | 82 | 1011.3 |
| 20260507004038 | 13 | 352 | 6.4 | 9.7 | 0.00 | 1.55 | 0.00 | 82 | 1011.4 |
| 20260507003538 | 13 | 331 | 6.4 | 9.7 | 0.00 | 1.55 | 0.00 | 82 | 1011.4 |
| 20260507003046 | 13 | 341 | 4.8 | 9.7 | 0.00 | 1.55 | 0.00 | 82 | 1011.5 |
| 20260507002538 | 13 | 346 | 4.8 | 8.0 | 0.00 | 1.55 | 0.00 | 82 | 1011.4 |
| 20260507002038 | 13 | 335 | 4.8 | 8.0 | 0.00 | 1.55 | 0.00 | 82 | 1011.4 |
| 20260507001551 | 13 | 343 | 3.2 | 8.0 | 0.00 | 1.55 | 0.00 | 82 | 1011.4 |
| 20260507001037 | 13 | 349 | 4.8 | 8.0 | 0.00 | 1.55 | 0.00 | 82 | 1011.5 |
| 20260507000538 | 13 | 352 | 4.8 | 12.9 | 0.00 | 1.55 | 0.00 | 82 | 1011.5 |
| 20260507000054 | 13 | 345 | 4.8 | 12.9 | 0.00 | 1.55 | 0.00 | 82 | 1011.4 |
| 20260506235539 | 13 | 348 | 6.4 | 12.9 | 0.00 | 1.55 | 0.00 | 83 | 1011.4 |
| 20260506235037 | 13 | 21 | 6.4 | 12.9 | 0.00 | 1.55 | 0.00 | 83 | 1011.3 |
| 20260506234545 | 13 | 351 | 4.8 | 12.9 | 0.00 | 1.55 | 0.00 | 83 | 1011.4 |
| 20260506234040 | 13 | 342 | 4.8 | 8.0 | 0.00 | 1.55 | 0.00 | 83 | 1011.4 |
| 20260506233540 | 13 | 338 | 4.8 | 8.0 | 0.00 | 1.55 | 0.00 | 83 | 1011.3 |
| 20260506233056 | 13 | 331 | 3.2 | 8.0 | 0.00 | 1.55 | 0.00 | 82 | 1011.3 |
| 20260506232537 | 13 | 352 | 3.2 | 12.9 | 0.00 | 1.55 | 0.00 | 83 | 1011.2 |
| 20260506232035 | 13 | 347 | 4.8 | 12.9 | 0.00 | 1.55 | 0.00 | 82 | 1011.1 |
| 20260506231546 | 13 | 352 | 6.4 | 12.9 | 0.00 | 1.55 | 0.00 | 82 | 1011.0 |
| 20260506231035 | 13 | 5 | 4.8 | 11.3 | 0.00 | 1.55 | 0.00 | 82 | 1010.9 |
| 20260506230534 | 13 | 352 | 3.2 | 9.7 | 0.00 | 1.55 | 0.00 | 82 | 1010.9 |
| 20260506230051 | 13 | 5 | 3.2 | 9.7 | 0.00 | 1.55 | 0.00 | 82 | 1010.9 |
| 20260506225541 | 13 | 343 | 4.8 | 9.7 | 0.00 | 1.57 | 0.00 | 81 | 1010.8 |
| 20260506225038 | 13 | 9 | 4.8 | 9.7 | 0.00 | 1.57 | 0.00 | 81 | 1010.8 |
| 20260506224553 | 13 | 329 | 4.8 | 12.9 | 0.00 | 1.57 | 0.00 | 81 | 1010.9 |
| 20260506224039 | 13 | 352 | 4.8 | 12.9 | 0.00 | 1.57 | 0.00 | 81 | 1010.9 |
| 20260506223537 | 13 | 339 | 4.8 | 8.0 | 0.00 | 1.57 | 0.00 | 80 | 1010.8 |
| 20260506223045 | 13 | 323 | 3.2 | 11.3 | 0.00 | 1.57 | 0.00 | 80 | 1010.9 |
| 20260506222538 | 13 | 317 | 3.2 | 11.3 | 0.00 | 1.57 | 0.00 | 80 | 1011.0 |
| 20260506222038 | 13 | 300 | 3.2 | 9.7 | 0.00 | 1.57 | 0.00 | 80 | 1011.0 |
| 20260506221549 | 13 | 281 | 3.2 | 6.4 | 0.00 | 1.57 | 0.00 | 80 | 1011.0 |
| 20260506221037 | 13 | 259 | 3.2 | 4.8 | 0.00 | 1.57 | 0.00 | 80 | 1011.0 |
| 20260506220537 | 13 | 298 | 1.6 | 6.4 | 0.00 | 1.57 | 0.00 | 79 | 1011.0 |
| 20260506220049 | 13 | 56 | 0.0 | 6.4 | 0.00 | 1.57 | 0.00 | 79 | 1010.9 |
| 20260506215537 | 13 | 0 | 1.6 | 9.7 | 0.00 | 1.57 | 1.57 | 79 | 1010.9 |
| 20260506215039 | 13 | 360 | 4.8 | 9.7 | 0.00 | 1.57 | 1.57 | 79 | 1010.8 |
| 20260506214600 | 14 | 346 | 3.2 | 9.7 | 0.00 | 1.57 | 1.57 | 78 | 1010.7 |
| 20260506214036 | 14 | 14 | 3.2 | 14.5 | 0.00 | 1.57 | 1.57 | 78 | 1010.8 |
| 20260506213541 | 14 | 67 | 4.8 | 14.5 | 0.00 | 1.57 | 1.57 | 78 | 1010.7 |
| 20260506213049 | 14 | 20 | 6.4 | 14.5 | 0.00 | 1.57 | 1.57 | 77 | 1010.7 |
| 20260506212538 | 14 | 42 | 4.8 | 12.9 | 0.00 | 1.57 | 1.57 | 77 | 1010.7 |
| 20260506212038 | 14 | 26 | 4.8 | 14.5 | 0.00 | 1.57 | 1.57 | 77 | 1010.7 |
| 20260506211547 | 14 | 12 | 6.4 | 16.1 | 0.00 | 1.57 | 1.57 | 77 | 1010.7 |
| 20260506211038 | 14 | 360 | 8.0 | 16.1 | 0.00 | 1.57 | 1.57 | 77 | 1010.8 |
| 20260506210537 | 14 | 338 | 8.0 | 16.1 | 0.00 | 1.57 | 1.57 | 77 | 1010.7 |
| 20260506210050 | 14 | 48 | 4.8 | 12.9 | 0.00 | 1.57 | 1.57 | 78 | 1010.7 |
| 20260506205538 | 14 | 337 | 4.8 | 12.9 | 0.00 | 1.68 | 1.57 | 78 | 1010.7 |
| 20260506205037 | 14 | 352 | 6.4 | 14.5 | 0.00 | 1.68 | 1.57 | 78 | 1010.7 |
| 20260506204551 | 14 | 360 | 6.4 | 16.1 | 0.00 | 1.68 | 1.57 | 78 | 1010.7 |
| 20260506204037 | 14 | 344 | 6.4 | 16.1 | 0.00 | 1.68 | 1.57 | 78 | 1010.7 |
| 20260506203540 | 14 | 337 | 8.0 | 19.3 | 0.00 | 1.68 | 1.57 | 78 | 1010.6 |
| 20260506203048 | 14 | 11 | 9.7 | 19.3 | 0.00 | 1.68 | 1.57 | 78 | 1010.7 |
| 20260506202537 | 14 | 13 | 9.7 | 16.1 | 0.00 | 1.68 | 1.57 | 78 | 1010.4 |
| 20260506202036 | 13 | 352 | 9.7 | 20.9 | 0.00 | 1.68 | 1.57 | 79 | 1010.4 |
| 20260506201548 | 13 | 360 | 11.3 | 20.9 | 0.00 | 1.68 | 1.57 | 79 | 1010.4 |
| 20260506201036 | 13 | 11 | 11.3 | 20.9 | 0.00 | 1.68 | 1.57 | 80 | 1010.4 |
| 20260506200535 | 13 | 43 | 11.3 | 22.5 | 0.00 | 1.68 | 1.57 | 81 | 1010.3 |
| 20260506200100 | 13 | 26 | 12.9 | 22.5 | 0.00 | 1.68 | 1.57 | 82 | 1010.4 |
| 20260506195536 | 13 | 327 | 11.3 | 19.3 | 0.00 | 1.70 | 1.57 | 82 | 1010.4 |
| 20260506195038 | 13 | 352 | 9.7 | 19.3 | 0.00 | 1.70 | 1.57 | 82 | 1010.3 |
| 20260506194551 | 13 | 317 | 11.3 | 19.3 | 0.00 | 1.70 | 1.57 | 82 | 1010.4 |
| 20260506194039 | 14 | 345 | 12.9 | 19.3 | 0.00 | 1.70 | 1.57 | 82 | 1010.3 |
| 20260506193535 | 14 | 330 | 8.0 | 17.7 | 0.00 | 1.70 | 1.57 | 81 | 1010.0 |
| 20260506193054 | 14 | 328 | 4.8 | 14.5 | 0.00 | 1.70 | 1.57 | 80 | 1009.9 |
| 20260506192537 | 14 | 323 | 8.0 | 14.5 | 0.00 | 1.70 | 1.57 | 80 | 1010.0 |
| 20260506192041 | 14 | 333 | 4.8 | 12.9 | 0.00 | 1.70 | 1.57 | 79 | 1009.9 |
| 20260506191554 | 14 | 5 | 4.8 | 12.9 | 0.00 | 1.70 | 1.57 | 79 | 1009.8 |
| 20260506191038 | 14 | 348 | 6.4 | 12.9 | 0.00 | 1.70 | 1.57 | 79 | 1009.6 |
| 20260506190538 | 14 | 25 | 4.8 | 11.3 | 0.00 | 1.70 | 1.57 | 79 | 1009.6 |
| 20260506190053 | 14 | 30 | 4.8 | 11.3 | 0.00 | 1.70 | 1.57 | 79 | 1009.6 |
| 20260506185537 | 14 | 5 | 6.4 | 9.7 | 0.00 | 1.70 | 1.57 | 79 | 1009.5 |
| 20260506185035 | 14 | 338 | 4.8 | 14.5 | 0.00 | 1.70 | 1.57 | 78 | 1009.4 |
| 20260506184549 | 14 | 5 | 4.8 | 14.5 | 0.00 | 1.70 | 1.57 | 78 | 1009.4 |
| 20260506184036 | 14 | 13 | 6.4 | 14.5 | 0.00 | 1.70 | 1.57 | 78 | 1009.2 |
| 20260506183538 | 14 | 352 | 6.4 | 16.1 | 0.00 | 1.70 | 1.57 | 77 | 1009.1 |
| 20260506183052 | 15 | 352 | 8.0 | 24.1 | 0.00 | 1.70 | 1.57 | 77 | 1009.2 |
| 20260506182537 | 15 | 21 | 9.7 | 24.1 | 0.00 | 1.70 | 1.57 | 77 | 1009.1 |
| 20260506182037 | 15 | 44 | 12.9 | 24.1 | 0.00 | 1.70 | 1.57 | 76 | 1008.9 |
| 20260506181556 | 15 | 35 | 6.4 | 17.7 | 0.00 | 1.70 | 1.57 | 76 | 1008.8 |
| 20260506181038 | 15 | 35 | 8.0 | 17.7 | 0.00 | 1.70 | 1.57 | 76 | 1008.8 |
| 20260506180538 | 15 | 40 | 9.7 | 20.9 | 0.00 | 1.70 | 1.57 | 75 | 1008.8 |
| 20260506180111 | 15 | 32 | 8.0 | 20.9 | 0.00 | 1.70 | 1.57 | 75 | 1008.7 |
| 20260506175538 | 15 | 19 | 11.3 | 20.9 | 0.00 | 1.70 | 1.57 | 75 | 1008.6 |
| 20260506175037 | 15 | 5 | 9.7 | 19.3 | 0.00 | 1.70 | 1.57 | 75 | 1008.6 |
| 20260506174549 | 16 | 14 | 8.0 | 24.1 | 0.00 | 1.70 | 1.57 | 75 | 1008.6 |
| 20260506174037 | 16 | 5 | 12.9 | 24.1 | 0.00 | 1.70 | 1.57 | 74 | 1008.5 |
| 20260506173537 | 16 | 10 | 16.1 | 27.4 | 0.00 | 1.70 | 1.57 | 74 | 1008.4 |
| 20260506173106 | 16 | 352 | 14.5 | 27.4 | 0.00 | 1.70 | 1.57 | 74 | 1008.3 |
| 20260506172709 | 16 | 9 | 12.9 | 27.4 | 0.00 | 1.70 | 1.57 | 73 | 1008.2 |
| 20260506172037 | 16 | 360 | 17.7 | 27.4 | 0.00 | 1.70 | 1.57 | 72 | 1008.1 |
| 20260506171547 | 17 | 337 | 17.7 | 27.4 | 0.00 | 1.70 | 1.57 | 70 | 1008.0 |
| 20260506171037 | 18 | 22 | 14.5 | 27.4 | 0.00 | 1.70 | 1.57 | 68 | 1007.8 |
| 20260506170539 | 18 | 5 | 14.5 | 25.7 | 0.00 | 1.70 | 1.57 | 66 | 1007.6 |
| 20260506170050 | 19 | 320 | 11.3 | 22.5 | 0.00 | 1.70 | 1.57 | 62 | 1007.5 |
| 20260506165537 | 20 | 341 | 16.1 | 22.5 | 0.00 | 1.70 | 1.57 | 59 | 1007.3 |
| 20260506165038 | 21 | 236 | 6.4 | 20.9 | 0.00 | 1.70 | 1.57 | 49 | 1007.1 |
| 20260506164549 | 21 | 173 | 8.0 | 29.0 | 0.00 | 1.70 | 1.57 | 49 | 1006.9 |
| 20260506164037 | 21 | 209 | 14.5 | 29.0 | 0.00 | 1.70 | 1.57 | 49 | 1006.7 |
| 20260506163537 | 21 | 178 | 11.3 | 24.1 | 0.00 | 1.70 | 1.57 | 51 | 1006.7 |
| 20260506163055 | 21 | 171 | 11.3 | 25.7 | 0.00 | 1.70 | 1.57 | 51 | 1006.6 |
| 20260506162537 | 21 | 194 | 11.3 | 25.7 | 0.00 | 1.70 | 1.57 | 52 | 1006.6 |
| 20260506162039 | 21 | 167 | 9.7 | 25.7 | 0.00 | 1.70 | 1.57 | 49 | 1006.5 |
| 20260506161554 | 21 | 228 | 9.7 | 25.7 | 0.00 | 1.70 | 1.57 | 56 | 1006.5 |
| 20260506161037 | 21 | 157 | 12.9 | 25.7 | 0.00 | 1.70 | 1.57 | 57 | 1006.4 |
| 20260506160537 | 21 | 163 | 11.3 | 25.7 | 0.00 | 1.70 | 1.57 | 64 | 1006.4 |
| 20260506160049 | 21 | 140 | 14.5 | 27.4 | 0.00 | 1.70 | 1.57 | 73 | 1006.4 |
| 20260506155541 | 20 | 148 | 12.9 | 27.4 | 0.00 | 1.70 | 1.57 | 74 | 1006.4 |
| 20260506155035 | 20 | 150 | 19.3 | 27.4 | 0.00 | 1.70 | 1.57 | 74 | 1006.5 |
| 20260506154552 | 20 | 132 | 12.9 | 32.2 | 0.00 | 1.70 | 1.57 | 76 | 1006.5 |
| 20260506154038 | 20 | 120 | 16.1 | 32.2 | 0.00 | 1.70 | 1.57 | 76 | 1006.6 |
| 20260506153538 | 20 | 149 | 17.7 | 32.2 | 0.00 | 1.70 | 1.57 | 71 | 1006.6 |
| 20260506153046 | 20 | 140 | 17.7 | 30.6 | 0.00 | 1.70 | 1.57 | 77 | 1006.7 |
| 20260506152538 | 20 | 112 | 14.5 | 24.1 | 0.00 | 1.70 | 1.57 | 78 | 1006.7 |
| 20260506152041 | 20 | 106 | 14.5 | 29.0 | 0.00 | 1.70 | 1.57 | 77 | 1006.7 |
| 20260506151548 | 20 | 89 | 17.7 | 30.6 | 0.00 | 1.70 | 1.57 | 77 | 1006.8 |
| 20260506151037 | 20 | 121 | 16.1 | 30.6 | 0.00 | 1.70 | 1.57 | 77 | 1006.9 |
| 20260506150537 | 20 | 131 | 16.1 | 27.4 | 0.00 | 1.70 | 1.57 | 79 | 1006.9 |
| 20260506150056 | 20 | 126 | 16.1 | 27.4 | 0.00 | 1.70 | 1.57 | 78 | 1007.0 |
| 20260506145539 | 20 | 126 | 14.5 | 27.4 | 0.00 | 1.70 | 1.57 | 79 | 1007.1 |
| 20260506145037 | 20 | 95 | 14.5 | 27.4 | 0.00 | 1.70 | 1.57 | 74 | 1007.3 |
| 20260506144601 | 20 | 92 | 12.9 | 24.1 | 0.00 | 1.70 | 1.57 | 80 | 1007.3 |
| 20260506144037 | 20 | 132 | 16.1 | 27.4 | 0.00 | 1.70 | 1.57 | 81 | 1007.3 |
| 20260506143537 | 19 | 124 | 17.7 | 30.6 | 0.00 | 1.70 | 1.57 | 79 | 1007.3 |
| 20260506143047 | 19 | 127 | 20.9 | 30.6 | 0.00 | 1.70 | 1.57 | 79 | 1007.4 |
| 20260506142539 | 19 | 129 | 17.7 | 30.6 | 0.00 | 1.70 | 1.57 | 80 | 1007.4 |
| 20260506142037 | 19 | 101 | 16.1 | 29.0 | 0.00 | 1.70 | 1.57 | 80 | 1007.4 |
| 20260506141545 | 19 | 139 | 19.3 | 35.4 | 0.00 | 1.70 | 1.57 | 80 | 1007.5 |
| 20260506141037 | 19 | 118 | 20.9 | 35.4 | 0.00 | 1.70 | 1.57 | 80 | 1007.5 |
| 20260506140538 | 19 | 152 | 20.9 | 33.8 | 0.00 | 1.70 | 1.57 | 80 | 1007.7 |
| 20260506140051 | 19 | 136 | 20.9 | 30.6 | 0.00 | 1.70 | 1.57 | 80 | 1007.8 |
| 20260506135537 | 19 | 130 | 17.7 | 27.4 | 0.00 | 1.70 | 1.57 | 81 | 1007.9 |
| 20260506135037 | 19 | 137 | 19.3 | 30.6 | 0.00 | 1.70 | 1.57 | 79 | 1007.9 |
| 20260506134549 | 19 | 74 | 19.3 | 30.6 | 0.00 | 1.70 | 1.57 | 80 | 1007.9 |
| 20260506134037 | 19 | 128 | 16.1 | 27.4 | 0.00 | 1.70 | 1.57 | 76 | 1008.0 |
| 20260506133538 | 18 | 136 | 12.9 | 27.4 | 0.00 | 1.70 | 1.57 | 83 | 1008.2 |
| 20260506133051 | 18 | 136 | 16.1 | 27.4 | 0.00 | 1.70 | 1.57 | 82 | 1008.3 |
| 20260506132537 | 18 | 111 | 16.1 | 27.4 | 0.00 | 1.70 | 1.57 | 81 | 1008.3 |
| 20260506132037 | 18 | 113 | 12.9 | 22.5 | 0.00 | 1.70 | 1.57 | 83 | 1008.4 |
| 20260506131549 | 18 | 98 | 14.5 | 29.0 | 0.00 | 1.70 | 1.57 | 82 | 1008.4 |
| 20260506131037 | 18 | 147 | 17.7 | 29.0 | 0.00 | 1.70 | 1.57 | 83 | 1008.3 |
| 20260506130537 | 18 | 125 | 17.7 | 32.2 | 0.00 | 1.70 | 1.57 | 83 | 1008.3 |
| 20260506130052 | 18 | 137 | 20.9 | 32.2 | 0.00 | 1.70 | 1.57 | 82 | 1008.5 |
| 20260506125537 | 18 | 104 | 16.1 | 25.7 | 0.00 | 1.70 | 1.57 | 83 | 1008.5 |
| 20260506125037 | 18 | 121 | 14.5 | 27.4 | 0.00 | 1.70 | 1.57 | 83 | 1008.5 |
| 20260506124553 | 18 | 73 | 14.5 | 30.6 | 0.00 | 1.70 | 1.57 | 83 | 1008.5 |
| 20260506124041 | 18 | 86 | 12.9 | 30.6 | 0.00 | 1.70 | 1.57 | 85 | 1008.5 |
| 20260506123538 | 18 | 103 | 16.1 | 30.6 | 0.00 | 1.70 | 1.57 | 84 | 1008.5 |
| 20260506123049 | 18 | 38 | 17.7 | 27.4 | 0.00 | 1.70 | 1.57 | 83 | 1008.6 |
| 20260506122538 | 18 | 105 | 12.9 | 24.1 | 0.00 | 1.70 | 1.57 | 84 | 1008.7 |
| 20260506122039 | 17 | 168 | 14.5 | 25.7 | 0.00 | 1.70 | 1.57 | 84 | 1008.7 |
| 20260506121548 | 17 | 112 | 14.5 | 25.7 | 0.00 | 1.70 | 1.57 | 84 | 1008.8 |
| 20260506121037 | 17 | 109 | 16.1 | 25.7 | 0.00 | 1.70 | 1.57 | 85 | 1008.8 |
| 20260506120538 | 17 | 88 | 14.5 | 27.4 | 0.00 | 1.70 | 1.57 | 85 | 1008.8 |
| 20260506120050 | 17 | 93 | 16.1 | 27.4 | 0.00 | 1.70 | 1.57 | 86 | 1008.8 |
| 20260506115541 | 17 | 127 | 14.5 | 27.4 | 0.00 | 1.70 | 1.57 | 87 | 1008.8 |
| 20260506115038 | 17 | 120 | 14.5 | 27.4 | 0.00 | 1.70 | 1.57 | 87 | 1008.8 |
| 20260506114547 | 17 | 102 | 17.7 | 27.4 | 0.00 | 1.70 | 1.57 | 89 | 1009.0 |
| 20260506114038 | 17 | 126 | 14.5 | 32.2 | 0.00 | 1.70 | 1.57 | 89 | 1008.9 |
| 20260506113537 | 16 | 130 | 16.1 | 32.2 | 0.00 | 1.70 | 1.57 | 88 | 1008.9 |
| 20260506113045 | 16 | 112 | 14.5 | 25.7 | 0.00 | 1.70 | 1.57 | 89 | 1009.0 |
| 20260506112538 | 16 | 135 | 16.1 | 29.0 | 0.00 | 1.70 | 1.57 | 89 | 1009.0 |
| 20260506112039 | 16 | 145 | 19.3 | 29.0 | 0.00 | 1.70 | 1.57 | 90 | 1008.9 |
| 20260506111547 | 16 | 110 | 16.1 | 29.0 | 0.00 | 1.70 | 1.57 | 91 | 1009.0 |
| 20260506111037 | 16 | 123 | 16.1 | 24.1 | 0.00 | 1.70 | 1.57 | 90 | 1009.0 |
| 20260506110538 | 16 | 147 | 16.1 | 27.4 | 0.00 | 1.70 | 1.57 | 90 | 1009.1 |
| 20260506110046 | 16 | 147 | 14.5 | 29.0 | 0.00 | 1.70 | 1.57 | 91 | 1009.1 |
| 20260506105538 | 16 | 138 | 12.9 | 32.2 | 0.00 | 1.70 | 1.57 | 91 | 1009.2 |
| 20260506105041 | 16 | 134 | 20.9 | 32.2 | 0.00 | 1.70 | 1.57 | 91 | 1009.2 |
| 20260506104555 | 16 | 129 | 17.7 | 29.0 | 0.00 | 1.70 | 1.57 | 93 | 1009.3 |
| 20260506104037 | 15 | 84 | 16.1 | 27.4 | 0.00 | 1.70 | 1.57 | 93 | 1009.2 |
| 20260506103537 | 15 | 169 | 12.9 | 24.1 | 0.00 | 1.70 | 1.57 | 94 | 1009.2 |
| 20260506103046 | 15 | 102 | 14.5 | 27.4 | 0.08 | 1.70 | 1.57 | 94 | 1009.3 |
| 20260506102540 | 15 | 82 | 14.5 | 27.4 | 0.25 | 1.70 | 1.57 | 93 | 1009.3 |
| 20260506102036 | 15 | 116 | 14.5 | 29.0 | 0.38 | 1.70 | 1.57 | 93 | 1009.4 |
| 20260506101548 | 15 | 82 | 16.1 | 37.0 | 0.43 | 1.70 | 1.57 | 94 | 1009.3 |
| 20260506101037 | 15 | 144 | 19.3 | 37.0 | 0.46 | 1.70 | 1.57 | 94 | 1009.4 |
| 20260506100537 | 15 | 85 | 19.3 | 33.8 | 0.56 | 1.70 | 1.57 | 95 | 1009.5 |
| 20260506100047 | 15 | 76 | 19.3 | 33.8 | 0.66 | 1.70 | 1.57 | 96 | 1009.3 |
| 20260506095538 | 14 | 102 | 16.1 | 33.8 | 0.76 | 1.70 | 1.57 | 96 | 1009.1 |
| 20260506095040 | 14 | 105 | 16.1 | 29.0 | 0.74 | 1.68 | 1.55 | 96 | 1009.1 |
| 20260506094600 | 14 | 59 | 11.3 | 41.8 | 0.76 | 1.68 | 1.55 | 96 | 1009.1 |
| 20260506094037 | 13 | 126 | 24.1 | 41.8 | 0.79 | 1.68 | 1.55 | 95 | 1009.1 |
| 20260506093537 | 14 | 117 | 16.1 | 27.4 | 0.79 | 1.68 | 1.52 | 96 | 1009.1 |
| 20260506093047 | 13 | 72 | 16.1 | 27.4 | 0.74 | 1.60 | 1.47 | 96 | 1009.4 |
| 20260506092537 | 13 | 105 | 17.7 | 27.4 | 0.56 | 1.42 | 1.30 | 96 | 1009.4 |
| 20260506092037 | 13 | 113 | 12.9 | 20.9 | 0.46 | 1.30 | 1.17 | 96 | 1009.5 |
| 20260506091548 | 13 | 98 | 12.9 | 20.9 | 0.41 | 1.27 | 1.12 | 95 | 1009.6 |
| 20260506091037 | 13 | 143 | 6.4 | 14.5 | 0.41 | 1.24 | 1.12 | 95 | 1009.8 |
| 20260506090538 | 13 | 119 | 1.6 | 9.7 | 0.36 | 1.12 | 0.99 | 95 | 1010.0 |
| 20260506090047 | 13 | 234 | 3.2 | 9.7 | 0.25 | 1.02 | 0.89 | 95 | 1010.2 |